Torna al catalogo

BREEZE-M DEB

LostHEO
NORAD 39996·DEBRIS·🇷🇺 Russia

Lanciato Mar 14, 2008 da Baikonur Cosmodrome

Loading…

Prossimi Passaggi (prossime 24 ore)

TLE

ObsoletoSource: Space-Track

Epoca: Oct 29, 2013, 03:18 UTC

1 39996U 08011DV  13302.13786541 -.00000029  00000-0  00000+0 0  9991
2 39996  47.2725 261.1797 5843379 188.4543 154.2544  2.93548538872065

Traccia BREEZE-M DEB in tempo reale con AllMySat

Download on the App Store